Time,TemperatureF,DewpointF,PressureIn,WindDirection,WindDirectionDegrees,WindSpeedMPH,WindSpeedGustMPH,Humidity,HourlyPrecipIn,Conditions,Clouds,dailyrainin,SolarRadiationWatts/m^2,SoftwareType,DateUTC
2013-03-29 00:02:00,45.0,40.0,-100.00,East,81,1.0,4.0,83,-99.99,,,0.00,0.000000,,2013-03-29 06:02:00,
2013-03-29 00:12:00,45.0,40.0,-100.00,East,81,1.0,4.0,83,-99.99,,,0.00,0.000000,,2013-03-29 06:12:00,
2013-03-29 00:42:00,40.0,37.0,-100.00,East,91,3.0,5.0,88,-99.99,,,0.00,0.000000,,2013-03-29 06:42:00,
2013-03-29 00:52:00,40.0,37.0,-100.00,East,91,3.0,5.0,88,-99.99,,,0.00,0.000000,,2013-03-29 06:52:00,
2013-03-29 01:02:00,40.0,37.0,-100.00,East,91,3.0,5.0,88,-99.99,,,0.00,0.000000,,2013-03-29 07:02:00,
2013-03-29 01:12:00,40.0,37.0,-100.00,East,91,3.0,5.0,88,-99.99,,,0.00,0.000000,,2013-03-29 07:12:00,
2013-03-29 01:42:00,37.0,35.0,-100.00,NNW,331,1.0,5.0,94,-99.99,,,0.00,0.000000,,2013-03-29 07:42:00,
2013-03-29 01:52:00,37.0,35.0,-100.00,NNW,331,1.0,5.0,94,-99.99,,,0.00,0.000000,,2013-03-29 07:52:00,
2013-03-29 02:02:00,37.0,35.0,-100.00,NNW,331,1.0,5.0,94,-99.99,,,0.00,0.000000,,2013-03-29 08:02:00,
2013-03-29 02:12:00,37.0,35.0,-100.00,NNW,331,1.0,5.0,94,-99.99,,,0.00,0.000000,,2013-03-29 08:12:00,
2013-03-29 02:42:00,38.0,36.0,-100.00,SSW,203,0.0,0.0,92,-99.99,,,0.00,0.000000,,2013-03-29 08:42:00,
2013-03-29 02:53:00,38.0,36.0,-100.00,SSW,203,0.0,0.0,92,-99.99,,,0.00,0.000000,,2013-03-29 08:53:00,
2013-03-29 03:02:00,38.0,36.0,-100.00,SSW,203,0.0,0.0,92,-99.99,,,0.00,0.000000,,2013-03-29 09:02:00,
2013-03-29 03:12:00,38.0,36.0,-100.00,SSW,203,0.0,0.0,92,-99.99,,,0.00,0.000000,,2013-03-29 09:12:00,
2013-03-29 03:42:00,37.0,36.0,-100.00,West,264,0.0,2.0,95,-99.99,,,-99.99,0.000000,,2013-03-29 09:42:00,
2013-03-29 03:52:00,37.0,36.0,-100.00,West,264,0.0,2.0,95,-99.99,,,-99.99,0.000000,,2013-03-29 09:52:00,
2013-03-29 04:02:00,37.0,36.0,-100.00,West,264,0.0,2.0,95,-99.99,,,-99.99,0.000000,,2013-03-29 10:02:00,
2013-03-29 04:12:00,37.0,36.0,-100.00,West,264,0.0,2.0,95,-99.99,,,-99.99,0.000000,,2013-03-29 10:12:00,
2013-03-29 04:42:00,37.0,36.0,-100.00,ESE,113,1.0,3.0,96,-99.99,,,0.00,0.000000,,2013-03-29 10:42:00,
2013-03-29 04:53:00,37.0,36.0,-100.00,ESE,113,1.0,3.0,96,-99.99,,,0.00,0.000000,,2013-03-29 10:53:00,
2013-03-29 05:03:00,37.0,36.0,-100.00,ESE,113,1.0,3.0,96,-99.99,,,0.00,0.000000,,2013-03-29 11:03:00,
2013-03-29 05:12:00,37.0,36.0,-100.00,ESE,113,1.0,3.0,96,-99.99,,,0.00,0.000000,,2013-03-29 11:12:00,
2013-03-29 05:42:00,38.0,37.0,-100.00,WNW,283,1.0,4.0,98,-99.99,,,0.00,0.000000,,2013-03-29 11:42:00,
2013-03-29 05:52:00,38.0,37.0,-100.00,WNW,283,1.0,4.0,98,-99.99,,,0.00,0.000000,,2013-03-29 11:52:00,
2013-03-29 06:02:00,38.0,37.0,-100.00,WNW,283,1.0,4.0,98,-99.99,,,0.00,0.000000,,2013-03-29 12:02:00,
2013-03-29 06:12:00,38.0,37.0,-100.00,WNW,283,1.0,4.0,98,-99.99,,,0.00,0.000000,,2013-03-29 12:12:00,
2013-03-29 06:42:00,38.0,38.0,-100.00,SE,141,4.0,6.0,99,-99.99,,,0.00,0.000000,,2013-03-29 12:42:00,
2013-03-29 06:53:00,38.0,38.0,-100.00,SE,141,4.0,6.0,99,-99.99,,,0.00,0.000000,,2013-03-29 12:53:00,
2013-03-29 07:02:00,38.0,38.0,-100.00,SE,141,4.0,6.0,99,-99.99,,,0.00,0.000000,,2013-03-29 13:02:00,
2013-03-29 07:12:00,38.0,38.0,-100.00,SE,141,4.0,6.0,99,-99.99,,,0.00,0.000000,,2013-03-29 13:12:00,
2013-03-29 07:42:00,38.0,37.0,-100.00,NE,35,1.0,3.0,99,-99.99,,,0.00,0.350000,,2013-03-29 13:42:00,
2013-03-29 07:53:00,38.0,37.0,-100.00,NE,35,1.0,3.0,99,-99.99,,,0.00,0.350000,,2013-03-29 13:53:00,
2013-03-29 08:02:00,38.0,37.0,-100.00,NE,35,1.0,3.0,99,-99.99,,,0.00,0.350000,,2013-03-29 14:02:00,
2013-03-29 08:12:00,38.0,37.0,-100.00,NE,35,1.0,3.0,99,-99.99,,,0.00,0.350000,,2013-03-29 14:12:00,
2013-03-29 08:42:00,38.0,38.0,-100.00,NNW,338,1.0,2.0,97,-99.99,,,0.00,37.660000,,2013-03-29 14:42:00,
2013-03-29 08:52:00,38.0,38.0,-100.00,NNW,338,1.0,2.0,97,-99.99,,,0.00,37.660000,,2013-03-29 14:52:00,
2013-03-29 09:02:00,38.0,38.0,-100.00,NNW,338,1.0,2.0,97,-99.99,,,0.00,37.660000,,2013-03-29 15:02:00,
2013-03-29 09:12:00,38.0,38.0,-100.00,NNW,338,1.0,2.0,97,-99.99,,,0.00,37.660000,,2013-03-29 15:12:00,
2013-03-29 09:42:00,41.0,38.0,-100.00,SSE,160,1.0,2.0,87,-99.99,,,0.00,99.830002,,2013-03-29 15:42:00,
2013-03-29 09:53:00,41.0,38.0,-100.00,SSE,160,1.0,2.0,87,-99.99,,,0.00,99.830002,,2013-03-29 15:53:00,
2013-03-29 10:03:00,41.0,38.0,-100.00,SSE,160,1.0,2.0,87,-99.99,,,0.00,99.830002,,2013-03-29 16:03:00,
2013-03-29 10:12:00,41.0,38.0,-100.00,SSE,160,1.0,2.0,87,-99.99,,,0.00,99.830002,,2013-03-29 16:12:00,
2013-03-29 10:42:00,41.0,39.0,-100.00,NNW,336,2.0,4.0,92,-99.99,,,0.00,142.720001,,2013-03-29 16:42:00,
2013-03-29 10:53:00,41.0,39.0,-100.00,NNW,336,2.0,4.0,92,-99.99,,,0.00,142.720001,,2013-03-29 16:53:00,
2013-03-29 11:02:00,41.0,39.0,-100.00,NNW,336,2.0,4.0,92,-99.99,,,0.00,142.720001,,2013-03-29 17:02:00,
2013-03-29 11:12:00,41.0,39.0,-100.00,NNW,336,2.0,4.0,92,-99.99,,,0.00,142.720001,,2013-03-29 17:12:00,
2013-03-29 11:42:00,46.0,39.0,-100.00,WSW,254,2.0,6.0,76,-99.99,,,0.00,381.779999,,2013-03-29 17:42:00,
2013-03-29 11:52:00,46.0,39.0,-100.00,WSW,254,2.0,6.0,76,-99.99,,,0.00,381.779999,,2013-03-29 17:52:00,
2013-03-29 12:02:00,46.0,39.0,-100.00,WSW,254,2.0,6.0,76,-99.99,,,0.00,381.779999,,2013-03-29 18:02:00,
2013-03-29 12:12:00,46.0,39.0,-100.00,WSW,254,2.0,6.0,76,-99.99,,,0.00,381.779999,,2013-03-29 18:12:00,
2013-03-29 12:42:00,48.0,39.0,-100.00,NW,324,2.0,4.0,70,-99.99,,,-99.99,321.459991,,2013-03-29 18:42:00,
2013-03-29 12:52:00,48.0,39.0,-100.00,NW,324,2.0,4.0,70,-99.99,,,-99.99,321.459991,,2013-03-29 18:52:00,
2013-03-29 13:02:00,48.0,39.0,-100.00,NW,324,2.0,4.0,70,-99.99,,,-99.99,321.459991,,2013-03-29 19:02:00,
2013-03-29 13:12:00,48.0,39.0,-100.00,NW,324,2.0,4.0,70,-99.99,,,-99.99,321.459991,,2013-03-29 19:12:00,
2013-03-29 13:42:00,52.0,40.0,-100.00,NNE,33,2.0,5.0,62,-99.99,,,0.00,771.929993,,2013-03-29 19:42:00,
2013-03-29 13:52:00,52.0,40.0,-100.00,NNE,33,2.0,5.0,62,-99.99,,,0.00,771.929993,,2013-03-29 19:52:00,
2013-03-29 14:02:00,52.0,40.0,-100.00,NNE,33,2.0,5.0,62,-99.99,,,0.00,771.929993,,2013-03-29 20:02:00,
2013-03-29 14:12:00,52.0,40.0,-100.00,NNE,33,2.0,5.0,62,-99.99,,,0.00,771.929993,,2013-03-29 20:12:00,
2013-03-29 14:42:00,51.0,40.0,-100.00,NW,313,4.0,10.0,65,-99.99,,,0.00,150.389999,,2013-03-29 20:42:00,
2013-03-29 14:52:00,51.0,40.0,-100.00,NW,313,4.0,10.0,65,-99.99,,,0.00,150.389999,,2013-03-29 20:52:00,
2013-03-29 15:02:00,51.0,40.0,-100.00,NW,313,4.0,10.0,65,-99.99,,,0.00,150.389999,,2013-03-29 21:02:00,
2013-03-29 15:12:00,51.0,40.0,-100.00,NW,313,4.0,10.0,65,-99.99,,,0.00,150.389999,,2013-03-29 21:12:00,
2013-03-29 15:42:00,53.0,35.0,-100.00,SW,214,4.0,10.0,51,-99.99,,,0.00,271.720001,,2013-03-29 21:42:00,
2013-03-29 15:53:00,53.0,35.0,-100.00,SW,214,4.0,10.0,51,-99.99,,,0.00,271.720001,,2013-03-29 21:53:00,
2013-03-29 16:03:00,53.0,35.0,-100.00,SW,214,4.0,10.0,51,-99.99,,,0.00,271.720001,,2013-03-29 22:03:00,
2013-03-29 16:12:00,53.0,35.0,-100.00,SW,214,4.0,10.0,51,-99.99,,,0.00,271.720001,,2013-03-29 22:12:00,
2013-03-29 16:42:00,55.0,34.0,-100.00,West,274,6.0,12.0,45,-99.99,,,0.00,556.000000,,2013-03-29 22:42:00,
2013-03-29 16:53:00,55.0,34.0,-100.00,West,274,6.0,12.0,45,-99.99,,,0.00,556.000000,,2013-03-29 22:53:00,
2013-03-29 17:02:00,55.0,34.0,-100.00,West,274,6.0,12.0,45,-99.99,,,0.00,556.000000,,2013-03-29 23:02:00,
2013-03-29 17:12:00,55.0,34.0,-100.00,West,274,6.0,12.0,45,-99.99,,,0.00,556.000000,,2013-03-29 23:12:00,
2013-03-29 17:42:00,55.0,32.0,-100.00,West,262,3.0,8.0,42,-99.99,,,0.00,272.880005,,2013-03-29 23:42:00,
2013-03-29 17:52:00,55.0,32.0,-100.00,West,262,3.0,8.0,42,-99.99,,,0.00,272.880005,,2013-03-29 23:52:00,
2013-03-29 18:02:00,55.0,32.0,-100.00,West,262,3.0,8.0,42,-99.99,,,0.00,272.880005,,2013-03-30 00:02:00,
2013-03-29 18:11:00,55.0,32.0,-100.00,West,262,3.0,8.0,42,-99.99,,,0.00,272.880005,,2013-03-30 00:11:00,
2013-03-29 18:42:00,52.0,37.0,-100.00,NW,319,3.0,9.0,57,-99.99,,,0.00,136.910004,,2013-03-30 00:42:00,
2013-03-29 18:53:00,52.0,37.0,-100.00,NW,319,3.0,9.0,57,-99.99,,,0.00,136.910004,,2013-03-30 00:53:00,
2013-03-29 19:02:00,52.0,37.0,-100.00,NW,319,3.0,9.0,57,-99.99,,,0.00,136.910004,,2013-03-30 01:02:00,
2013-03-29 19:12:00,52.0,37.0,-100.00,NW,319,3.0,9.0,57,-99.99,,,0.00,136.910004,,2013-03-30 01:12:00,
2013-03-29 19:42:00,48.0,39.0,-100.00,WNW,289,5.0,11.0,71,-99.99,,,0.00,29.870001,,2013-03-30 01:42:00,
2013-03-29 19:52:00,48.0,39.0,-100.00,WNW,289,5.0,11.0,71,-99.99,,,0.00,29.870001,,2013-03-30 01:52:00,
2013-03-29 20:02:00,48.0,39.0,-100.00,WNW,289,5.0,11.0,71,-99.99,,,0.00,29.870001,,2013-03-30 02:02:00,
2013-03-29 20:12:00,48.0,39.0,-100.00,WNW,289,5.0,11.0,71,-99.99,,,0.00,29.870001,,2013-03-30 02:12:00,
2013-03-29 20:42:00,46.0,40.0,-100.00,SE,142,6.0,9.0,79,-99.99,,,0.00,1.390000,,2013-03-30 02:42:00,
2013-03-29 20:53:00,46.0,40.0,-100.00,SE,142,6.0,9.0,79,-99.99,,,0.00,1.390000,,2013-03-30 02:53:00,
2013-03-29 21:02:00,46.0,40.0,-100.00,SE,142,6.0,9.0,79,-99.99,,,0.00,1.390000,,2013-03-30 03:02:00,
2013-03-29 21:12:00,46.0,40.0,-100.00,SE,142,6.0,9.0,79,-99.99,,,0.00,1.390000,,2013-03-30 03:12:00,
2013-03-29 21:43:00,45.0,39.0,-100.00,SE,124,3.0,5.0,78,-99.99,,,0.00,0.000000,,2013-03-30 03:43:00,
2013-03-29 21:53:00,45.0,39.0,-100.00,SE,124,3.0,5.0,78,-99.99,,,0.00,0.000000,,2013-03-30 03:53:00,
2013-03-29 22:02:00,45.0,39.0,-100.00,SE,124,3.0,5.0,78,-99.99,,,0.00,0.000000,,2013-03-30 04:02:00,
2013-03-29 22:12:00,45.0,39.0,-100.00,SE,124,3.0,5.0,78,-99.99,,,0.00,0.000000,,2013-03-30 04:12:00,
2013-03-29 22:42:00,44.0,39.0,-100.00,ESE,104,2.0,4.0,82,-99.99,,,0.00,0.000000,,2013-03-30 04:42:00,
2013-03-29 22:53:00,44.0,39.0,-100.00,ESE,104,2.0,4.0,82,-99.99,,,0.00,0.000000,,2013-03-30 04:53:00,
2013-03-29 23:02:00,44.0,39.0,-100.00,ESE,104,2.0,4.0,82,-99.99,,,0.00,0.000000,,2013-03-30 05:02:00,
2013-03-29 23:12:00,44.0,39.0,-100.00,ESE,104,2.0,4.0,82,-99.99,,,0.00,0.000000,,2013-03-30 05:12:00,
2013-03-29 23:42:00,44.0,37.0,-100.00,SSE,159,1.0,4.0,77,-99.99,,,0.00,0.000000,,2013-03-30 05:42:00,
2013-03-29 23:52:00,44.0,37.0,-100.00,SSE,159,1.0,4.0,77,-99.99,,,0.00,0.000000,,2013-03-30 05:52:00,